Regional Weather Roundup
Issued by NWS Cleveland, OH

Home | Current Version | Previous Version | Graphics & Text | Print | Product List | Glossary On
Versions: 1 2 3 4 5 6 7 8 9 10 11 12 13 14 15 16 17 18 19 20 21 22 23 24 25 26 27 28 29 30 31 32 33 34 35 36 37 38 39 40 41 42 43 44 45 46 47 48 49 50
000
ASUS41 KCLE 021210
RWRCLE
OHIO REGIONAL WEATHER ROUNDUP
NATIONAL WEATHER SERVICE WILMINGTON, OH
800 AM EDT WED SEP 02 2015

NOTE: "FAIR" INDICATES FEW OR NO CLOUDS BELOW 12,000 FEET WITH NO
SIGNIFICANT WEATHER AND/OR OBSTRUCTIONS TO VISIBILITY.

OHZ001>008-015>018-024>027-034-035-043-044-021300-
   NORTHWEST OHIO

CITY           SKY/WX    TMP DP  RH WIND       PRES   REMARKS
DEFIANCE       CLEAR     70  66  87 SW7       30.09R FOG
FINDLAY        SUNNY     69  66  90 S3        30.09R FOG
TOLEDO EXPRESS CLEAR     69  67  93 SW5       30.07S FOG
TOLEDO EXEC    SUNNY     70  65  84 SW5       30.08S
LIMA           CLEAR     70  66  87 S7        30.11R
$$

OHZ009>014-019>023-028>033-038-089-021300-
   NORTHEAST OHIO

CITY           SKY/WX    TMP DP  RH WIND       PRES   REMARKS
CLE-HOPKINS    MOSUNNY   70  65  84 S9        30.11R
CLE-LAKEFRONT  SUNNY     74  66  76 S6        30.07R
CUY CO. ARPT   PTSUNNY   73  70  88 SW7       30.10R
LORAIN-ELYRIA  SUNNY     67  65  93 SW5       30.10S FOG
ASHTABULA      SUNNY     68  67  96 CALM      30.10R FOG
AKRON-CANTON   MOSUNNY   71  66  84 W5        30.12R
WOOSTER        SUNNY     66  66 100 CALM      30.13S FOG
MANSFIELD      SUNNY     68  66  93 SW6       30.13R
YOUNGSTOWN     MOSUNNY   68  66  93 SW3       30.11R FOG
$$

OHZ042-051>053-060>062-070>072-077>081-021300-
  SOUTHWEST OHIO

CITY           SKY/WX    TMP DP  RH WIND       PRES   REMARKS
CINC-COVINGTON CLEAR     66  65  96 S3        30.14R FOG
CINC-LUNKEN    PTCLDY    67  67 100 CALM      30.15R FOG
HAMILTON       CLEAR     67  66  97 CALM      30.15R FOG
DAYTON         PTCLDY    69  67  93 SW5       30.15R
WRIGHT-PAT AFB PTCLDY    67  67 100 CALM      30.14R FOG
DAYTON GENERAL CLEAR     68  65  90 S5        30.14R FOG
WILMINGTON     CLEAR     68  64  87 CALM      30.15R FOG
$$

OHZ036-037-039>041-045>050-054>059-063>069-073>076-082>088-021300-
  CENTRAL AND SOUTHEAST OHIO

CITY           SKY/WX    TMP DP  RH WIND       PRES   REMARKS
COLUMBUS       MOSUNNY   69  67  93 SE3       30.12R
OSU AIRPORT    MOSUNNY   69  66  90 CALM      30.13R FOG
BOLTON FIELD   SUNNY     64  64 100 SW3       30.14R FOG
RICKENBACK AFB FOG       65  65  99 CALM      30.13R VSB 1
NEWARK         SUNNY     65  64  97 CALM      30.13R FOG
MARION         MOSUNNY   67  65  93 CALM      30.12R FOG
LANCASTER      SUNNY     67  64  90 CALM      30.14R FOG
ZANESVILLE     MOSUNNY   68  65  90 CALM      30.13R FOG
NEW PHILLY     MOSUNNY   69  68  96 CALM      30.13R FOG
$$


USA.gov is the U.S. government's official web portal to all federal, state and local government web resources and services.